EW9099 Weather Reports


time (UTC)temp
C
wind
direction
speed
KPH
gust
KPH
rain 1hr
cm
rain 24hr
cm
rain mn
cm
humidity
%
barometer
mb
20260506124602 11 90 16.1 29.0 0.00 0.00 0.00 19 1010.8
20260506123003 11 104 19.3 33.8 0.00 0.00 0.00 25 1010.8
20260506121559 11 105 19.3 30.6 0.00 0.00 0.00 34 1010.7
20260506120057 11 134 22.5 37.0 0.00 0.00 0.00 36 1010.6
20260506114601 11 89 17.7 37.0 0.00 0.00 0.00 41 1010.5
20260506113059 11 62 17.7 27.4 0.00 0.00 0.00 82 1010.5
20260506111552 11 115 17.7 33.8 0.00 0.00 0.00 100 1010.6
20260506110050 11 111 19.3 37.0 0.00 0.00 0.00 100 1010.6
20260506104557 11 91 20.9 33.8 0.00 0.00 0.00 100 1010.7
20260506103057 11 87 24.1 33.8 0.00 0.00 0.00 100 1010.6
20260506101552 11 79 12.9 30.6 0.00 0.00 0.00 100 1010.5
20260506100048 11 119 22.5 33.8 0.00 0.00 0.00 100 1010.5
20260506094546 12 73 17.7 30.6 0.00 0.00 0.00 100 1010.5
20260506093045 12 84 16.1 30.6 0.00 0.00 0.00 100 1010.5
20260506091540 11 28 4.8 22.5 0.00 0.00 0.00 100 1010.5
20260506090036 10 105 11.3 19.3 0.00 0.00 0.00 100 1010.4
20260506084540 10 52 12.9 24.1 0.00 0.00 0.00 100 1010.3
20260506083033 10 73 4.8 20.9 0.00 0.00 0.00 100 1010.4
20260506081530 9 107 16.1 22.5 0.00 0.00 0.00 100 1010.3
20260506073023 7 84 3.2 19.3 0.00 0.00 0.00 100 1009.9
20260506071549 7 77 3.2 17.7 0.00 0.00 0.00 100 1010.1
20260506061511 6 111 3.2 16.1 0.00 0.00 0.00 100 1009.6
20260506044628 3 194 0.0 3.2 0.00 0.00 0.00 100 1010.1
20260506043052 3 315 0.0 1.6 0.00 0.00 0.00 100 1010.1
20260506041550 3 315 0.0 1.6 0.00 0.00 0.00 100 1010.0
20260506040048 3 323 0.0 4.8 0.00 0.00 0.00 100 1009.8
20260506034548 2 331 0.0 3.2 0.00 0.00 0.00 100 1009.9
20260506033045 2 333 0.0 6.4 0.00 0.00 0.00 100 1009.8
20260506031543 2 331 3.2 8.0 0.00 0.00 0.00 100 1009.8
20260506030043 2 317 1.6 6.4 0.00 0.00 0.00 100 1009.9
20260506024534 2 325 3.2 8.0 0.00 0.00 0.00 100 1009.8
20260506023038 2 338 3.2 6.4 0.00 0.00 0.00 100 1009.9
20260506021533 2 338 4.8 8.0 0.00 0.00 0.00 100 1010.1
20260506020031 2 338 4.8 8.0 0.00 0.00 0.00 100 1010.2
20260506014524 3 338 4.8 8.0 0.00 0.00 0.00 100 1010.1
20260506013021 3 337 4.8 8.0 0.00 0.00 0.00 100 1010.5
20260506011520 3 323 0.0 4.8 0.00 0.00 0.00 100 1010.4
20260506010038 3 322 1.6 6.4 0.00 0.00 0.00 100 1010.4
20260506004517 3 334 1.6 8.0 0.00 0.00 0.00 100 1010.4
20260506003017 3 334 3.2 8.0 0.00 0.00 0.00 100 1010.4
20260506001515 3 333 1.6 8.0 0.00 0.00 0.00 100 1010.4
20260506000013 3 328 3.2 9.7 0.00 0.00 0.00 100 1010.4
20260505234530 3 327 4.8 9.7 0.00 0.00 0.00 100 1010.4
20260505233010 4 19 4.8 8.0 0.00 0.00 0.00 100 1010.4
20260505231508 4 323 1.6 8.0 0.00 0.00 0.00 100 1010.3
20260505230008 4 322 4.8 9.7 0.00 0.00 0.00 100 1010.3
20260505224505 5 331 3.2 9.7 0.00 0.00 0.00 100 1010.4
20260505223001 5 336 4.8 9.7 0.00 0.00 0.00 100 1010.4
20260505221559 5 337 4.8 9.7 0.00 0.00 0.00 100 1010.6
20260505220056 5 331 6.4 9.7 0.00 0.00 0.00 100 1010.6
20260505214623 5 330 4.8 9.7 0.00 0.00 0.00 100 1010.6
20260505213103 5 335 4.8 9.7 0.00 0.00 0.00 100 1010.8
20260505211555 6 326 4.8 8.0 0.00 0.00 0.00 59 1010.8
20260505210059 6 338 3.2 9.7 0.00 0.00 0.00 39 1010.8
20260505204603 6 355 4.8 9.7 0.00 0.00 0.00 30 1010.6
20260505203056 6 327 4.8 9.7 0.00 0.00 0.00 22 1010.6
20260505201555 6 332 1.6 6.4 0.00 0.00 0.00 14 1010.5
20260505200104 7 344 3.2 9.7 0.00 0.00 0.00 12 1010.5
20260505194554 7 329 3.2 6.4 0.00 0.00 0.00 10 1010.5
20260505193050 7 334 1.6 8.0 0.00 0.00 0.00 7 1010.5
20260505191539 7 327 1.6 4.8 0.00 0.00 0.00 8 1010.4
20260505190037 8 307 0.0 4.8 0.00 0.00 0.00 16 1010.2
20260505184531 8 331 1.6 4.8 0.00 0.00 0.00 16 1010.2
20260505183027 9 311 1.6 8.0 0.00 0.00 0.00 5 1010.1
20260505181521 10 317 4.8 16.1 0.00 0.00 0.00 1 1010.1
20260505180032 10 288 9.7 25.7 0.00 0.00 0.00 1 1010.1
20260505174523 10 296 6.4 17.7 0.00 0.00 0.00 3 1010.0
20260505173012 11 311 6.4 19.3 0.00 0.00 0.00 12 1009.8
20260505171504 11 313 8.0 19.3 0.00 0.00 0.00 6 1009.8
20260505170059 11 315 8.0 20.9 0.00 0.00 0.00 4 1009.8
20260505164556 11 309 6.4 20.9 0.00 0.00 0.00 1 1009.7
20260505163054 12 317 9.7 22.5 0.00 0.00 0.00 1 1009.6
20260505161549 13 311 8.0 25.7 0.00 0.00 0.00 1 1009.5
20260505153034 14 299 6.4 16.1 0.00 0.00 0.00 8 1009.6
20260505151532 14 311 9.7 16.1 0.00 0.00 0.00 8 1009.6